SCP
0 0 0 0 0 0 0 -0 -0 -0 -0 0 0 0 0 0 0 0 0 0 -0 0 0 -0 -0 0 0 0 0 0 0 -0 -0 -0 0 0 0 0 -0 -0 0 -0 -0 0 0 -0 -0 0 0
0 0 0 0 0 -0 -0 -0 -0 -0 -0 -0 0 0 0 0 0 0 0 0 -0 0 -0 0 -0 0 0 0 0 0 0 -0 -0 -0 0 0 0 0 0 -0 0 -0 -0 0 0 -0 0 0 0
0 0 0 0 0 -0 -0 -0 -0 -0 -0 -0 0 -0 0 0 0 0 0 0 0 0 0 -0 0 -0 -0 0 0 0 0 -0 -0 -0 0 0 0 0 0 0 0 0 0 -0 0 0 0 0 0
0 1 1 0 0 -0 -0 -0 -0 -0 -0 0 -0 -0 0 0 0 0 0 0 0 -0 -0 0 0 -0 0 -0 0 0 0 0 -0 0 0 0 0 0 0 0 0 0 0 -0 -0 0 0 0 0
0 0 0 0 0 0 0 0 -0 -0 -0 -0 -0 -0 -0 -0 0 0 0 -0 -0 0 0 0 0 -0 0 0 0 -0 -0 -0 -0 0 0 0 0 0 -0 0 0 -0 0 -0 -0 -0 -0 0 0
1 1 0 0 0 0 0 0 0 0 -0 -0 0 -0 -0 0 0 0 0 0 -0 -0 0 0 0 0 0 0 0 -0 -0 -0 0 0 0 0 0 0 -0 -0 -0 -0 -0 -0 -0 -0 -0 -0 0
1 1 0 0 0 0 0 0 0 0 0 -0 -0 -0 -0 -0 0 0 0 0 0 0 0 0 0 0 0 0 0 0 -0 0 0 0 0 0 -0 0 0 -0 -0 -0 -0 -0 -0 -0 -0 -0 0
0 1 0 0 0 0 0 0 0 0 0 0 -0 -0 -0 -0 -0 0 0 0 0 0 0 0 0 -0 0 0 0 -0 -0 0 -0 0 0 0 0 -0 -0 -0 -0 -0 -0 -0 -0 -0 -0 0 0
1 1 -0 -0 0 0 0 0 0 0 0 0 0 -0 -0 -0 0 0 0 0 0 0 0 0 0 0 0 0 -0 -0 -0 -0 0 0 -0 -0 -0 -0 -0 -0 -0 -0 -0 -0 -0 -0 -0 -0 -0
1 0 -0 0 0 0 0 0 0 0 0 0 0 -0 -0 -0 0 0 0 0 0 0 0 -0 0 0 0 -0 -0 0 -0 -0 -0 -0 -0 0 -0 -0 -0 -0 -0 -0 -0 -0 -0 -0 -0 -0 -0
-0 0 0 0 -0 0 0 0 0 0 0 0 -0 -0 -0 -0 0 0 0 0 0 0 0 0 0 0 0 0 -0 -0 0 0 0 0 -0 -0 -0 -0 0 -0 -0 -0 -0 -0 -0 -0 -0 -0 -0
0 0 0 0 0 0 0 0 0 0 0 0 -0 -0 -0 -0 -0 0 -0 0 0 0 0 0 -0 -0 0 0 0 -0 -0 -0 0 -0 -0 0 0 -0 -0 -0 -0 -0 -0 0 0 -0 -0 -0 -0
-0 0 0 0 0 0 0 0 0 0 0 0 -0 -0 -0 -0 -0 -0 -0 0 -0 0 0 0 -0 0 0 0 0 0 0 0 0 -0 -0 0 -0 -0 -0 -0 -0 -0 0 0 -0 -0 0 0 -0
-0 0 0 0 0 0 0 0 0 0 0 0 -0 -0 -0 -0 -0 -0 -0 -0 -0 -0 -0 -0 0 0 0 0 0 0 0 -0 -0 0 0 -0 0 -0 0 0 -0 0 -0 0 -0 -0 -0 0 0
-0 -0 -0 0 0 0 0 0 0 -0 0 0 -0 -0 -0 -0 -0 -0 -0 -0 -0 -0 -0 -0 -0 -0 0 -0 -0 -0 -0 -0 -0 0 -0 0 -0 -0 0 0 -0 0 0 0 -0 -0 -0 -0 -0
-0 -0 -0 0 0 0 0 0 0 0 -0 -0 -0 0 -0 -0 -0 -0 -0 -0 -0 -0 -0 -0 -0 -0 -0 0 -0 -0 -0 -0 -0 0 0 -0 -0 0 0 0 0 0 0 -0 0 -0 0 0 0
-0 -0 -0 0 0 0 0 0 0 0 -0 -0 -0 -0 -0 -0 -0 -0 -0 -0 -0 -0 -0 -0 -0 -0 -0 0 -0 -0 0 -0 -0 0 0 0 0 0 0 0 0 0 0 0 0 -0 0 0 -0
-0 -0 -0 -0 0 -0 -0 -0 -0 0 -0 -0 -0 -0 -0 -0 -0 -0 -0 -0 0 -0 -0 -0 -0 -0 -0 -0 0 0 0 0 0 0 0 0 0 0 0 0 0 0 0 -0 0 0 -0 -0 0
0 -0 -0 0 0 -0 -0 -0 0 -0 -0 -0 -0 -0 -0 -0 -0 -0 -0 -0 -0 -0 -0 -0 -0 -0 -0 -0 -0 0 -0 0 0 -0 0 0 0 0 0 0 -0 0 -0 -0 0 -0 0 0 -0
0 -0 -0 -0 0 -0 -0 -0 0 -0 -0 -0 -0 -0 -0 -0 -0 -0 -0 -0 -0 -0 -0 -0 -0 -0 -0 -0 -0 0 -0 0 0 0 0 0 0 0 -0 -0 -0 -0 -0 -0 -0 0 -0 -0 -0
-0 -0 -0 0 -0 -0 0 -0 0 0 0 0 0 -0 -0 -0 -0 -0 -0 -0 -0 -0 -0 -0 -0 -0 -0 0 0 -0 0 -0 -0 0 0 0 0 0 0 0 -0 0 0 -0 -0 0 -0 -0 0
-0 -0 0 0 -0 -0 0 0 0 -0 0 -0 0 -0 -0 -0 -0 -0 -0 -0 -0 -0 -0 -0 -0 -0 -0 0 0 -0 -0 -0 0 0 0 0 0 0 0 0 0 0 -0 0 0 0 0 0 0
-0 0 0 0 -0 -0 0 0 0 -0 0 0 0 -0 0 -0 -0 -0 -0 -0 -0 -0 -0 -0 -0 -0 0 -0 -0 -0 -0 0 -0 -0 -0 0 0 -0 0 0 0 0 0 0 0 0 0 0 0
0 -0 0 0 0 0 -0 0 -0 0 0 0 0 0 -0 -0 -0 -0 -0 -0 -0 -0 -0 -0 -1 -1 -0 -0 -0 -0 -0 -0 -0 -0 0 0 -0 -0 -0 0 0 0 -0 0 0 0 0 0 0
0 -0 0 -0 -0 -0 -0 0 0 0 0 0 0 0 0 -0 -0 -0 -0 -0 -0 -0 -0 -0 -1 -1 -1 -1 -0 -1 -0 -0 0 0 0 0 0 -0 -0 -0 -0 -0 0 0 0 0 0 0 0
-0 -0 -0 -0 0 0 0 0 0 0 0 0 0 0 -0 0 -0 -0 -0 -0 -0 -0 -0 -0 -1 -1 -1 -1 -1 -1 -1 -0 -0 -0 0 -0 -0 -0 -0 -0 0 0 0 0 0 0 0 0 0
-0 -0 -0 -0 -0 0 0 0 0 0 0 0 0 0 0 0 -0 -0 -0 -0 -0 -0 -0 -1 -1 -1 -1 -1 -0 -1 -0 -0 -0 -0 -0 -0 0 -0 -0 -0 -0 -0 0 0 0 0 0 0 0
-0 -0 -0 -0 -0 -0 0 0 0 0 0 0 0 0 0 0 -0 -0 -0 -0 -0 -0 -0 -0 -1 -1 -1 -0 -0 -0 -0 -0 -0 -0 -0 -0 -0 0 -0 -0 -0 0 0 0 0 0 0 1 0
0 -0 -0 -0 0 -0 -0 0 0 0 0 0 0 0 0 0 0 0 0 -0 -0 -0 -0 -0 -0 -0 -0 -0 -0 -0 -0 -0 -0 -0 -0 -0 -0 -0 -0 -0 -0 -0 -0 0 0 0 0 0 0
-0 -0 -0 0 -0 -0 0 0 0 0 0 0 0 0 0 0 1 1 0 -0 -0 -0 -0 -0 -0 -0 -0 -0 -0 -0 -0 -0 -0 -0 -0 -0 -0 -0 -0 -0 -0 -0 -0 -0 -0 0 0 0 0
Wind_Speed_500mb
13 8 8 11 8 9 19 15 19 24 19 22 16 16 21 31 20 12 40 34 41 38 36 41 43 43 44 42 40 38 34 34 30 28 22 21 21 22 19 16 17 19 16 19 25 32 37 38 35
13 10 11 16 9 14 19 18 16 20 29 35 25 12 18 20 21 34 27 50 37 40 36 34 41 44 44 40 38 35 33 30 26 24 17 18 19 19 17 14 13 17 17 21 26 30 38 36 32
10 14 11 11 17 23 20 34 25 30 24 19 11 21 10 10 22 11 35 50 35 37 35 35 41 42 42 37 37 35 30 26 21 20 14 13 14 14 15 15 15 17 19 22 24 25 30 33 29
8 11 18 7 24 24 23 22 32 22 17 14 26 18 16 14 24 27 44 37 39 33 36 37 41 41 40 36 34 33 28 24 17 14 10 8 12 12 13 15 16 17 18 19 23 24 24 26 26
14 17 9 23 24 23 22 18 29 26 17 27 18 20 19 41 37 39 29 35 37 32 32 37 39 39 37 34 31 28 26 22 18 12 7 7 10 10 12 14 16 16 17 19 20 20 23 21 21
14 11 5 24 23 16 16 14 18 27 25 30 17 23 16 45 49 43 36 34 34 41 30 34 37 35 33 32 29 25 22 19 16 13 9 7 8 9 9 12 14 16 17 21 20 19 19 20 19
30 10 22 25 23 19 13 4 18 14 25 24 33 25 29 48 51 49 39 35 32 34 36 30 29 32 31 26 22 19 18 16 15 13 11 10 9 7 8 12 13 14 16 17 18 18 17 17 17
21 7 16 17 27 18 14 15 12 14 14 24 34 15 47 57 56 56 44 33 32 35 32 31 29 27 24 23 22 19 16 16 14 15 14 12 6 3 10 10 10 13 11 14 16 14 15 15 15
34 7 25 29 27 16 13 18 13 13 26 11 13 29 58 61 54 56 49 39 30 28 34 35 32 24 28 21 20 19 17 15 16 14 15 11 8 6 8 9 10 12 11 12 15 15 14 12 13
14 25 24 25 16 21 15 19 22 18 24 19 38 52 67 60 49 51 57 41 39 38 36 39 33 25 24 21 13 13 10 13 13 11 16 14 12 13 13 11 13 13 12 11 14 17 25 19 13
26 22 11 16 19 17 17 24 19 23 19 34 53 65 69 60 54 48 43 41 40 35 36 29 27 31 22 21 14 16 14 16 18 19 17 13 11 9 17 15 12 12 14 9 9 16 11 7 10
6 11 13 9 7 10 14 23 18 14 24 37 52 71 67 62 62 55 47 45 42 38 36 30 31 23 23 25 22 17 20 8 18 17 18 18 13 10 11 10 15 17 17 26 18 13 8 12 14
20 16 4 9 7 8 14 16 14 10 28 38 51 62 66 62 63 54 45 41 40 40 37 35 31 32 28 29 27 22 19 20 17 15 19 19 19 15 12 14 22 20 21 18 15 17 13 13 11
17 6 6 8 8 12 22 22 17 21 30 40 52 57 60 61 60 53 47 44 43 41 40 37 35 35 31 33 31 29 20 19 19 17 19 23 20 17 18 21 18 24 19 23 17 16 18 20 16
13 13 22 12 8 11 22 14 23 32 31 39 49 52 53 54 54 53 49 46 44 41 41 40 39 36 36 30 22 19 19 19 19 17 15 22 22 16 18 11 19 16 20 17 23 24 19 15 12
23 15 15 16 15 5 21 29 13 31 41 44 46 51 53 52 53 49 48 46 45 42 43 41 37 38 37 33 26 21 19 18 17 19 18 20 20 15 12 14 17 23 20 22 18 12 12 19 13
48 8 12 24 17 11 16 14 21 27 44 46 47 48 52 52 53 52 49 48 47 45 44 44 42 38 37 39 25 24 21 22 17 20 21 21 19 15 9 11 19 24 22 22 20 13 12 10 11
23 17 16 16 10 13 15 17 25 29 42 40 46 48 51 53 55 55 52 49 48 46 45 44 43 40 40 32 32 27 27 24 25 20 17 19 22 11 9 7 16 26 24 19 17 15 10 7 18
21 25 23 17 9 11 13 12 17 34 32 40 49 51 54 54 52 54 55 52 50 49 45 46 46 46 45 40 35 31 32 28 27 22 21 22 13 8 6 9 12 25 21 18 19 17 10 17 13
29 32 29 27 12 20 12 14 17 33 27 32 37 46 48 49 51 54 58 58 55 53 50 47 47 48 46 41 34 35 30 33 31 25 20 22 18 10 7 8 12 19 19 23 18 20 18 9 17
31 31 36 20 21 36 15 24 15 17 24 24 31 37 46 49 50 54 60 61 58 56 55 52 51 49 48 42 34 30 28 34 16 16 18 25 21 16 13 13 18 19 24 15 18 18 17 11 15
30 27 27 16 25 13 3 5 18 24 22 17 26 35 43 50 49 52 59 62 63 59 55 54 53 53 48 49 37 38 30 29 27 23 20 25 25 24 20 17 19 20 20 18 15 18 17 14 13
27 26 23 28 26 32 21 10 27 29 13 18 25 32 41 51 53 54 56 60 60 58 58 57 56 56 51 50 49 40 39 31 26 23 21 26 27 28 25 25 24 20 20 22 20 22 19 14 9
21 19 24 28 26 25 29 20 14 26 6 8 5 11 35 50 55 51 51 54 57 59 60 60 58 60 57 53 51 53 42 36 35 27 27 21 24 27 32 30 27 24 21 20 28 21 13 20 15
21 29 20 21 22 23 28 13 13 26 15 18 13 11 20 45 59 57 55 58 58 61 62 61 63 64 61 58 53 52 55 43 37 26 28 27 24 27 29 32 30 24 30 32 24 20 18 18 18
28 26 21 21 19 21 17 10 13 9 26 20 16 14 20 43 61 61 58 57 58 60 61 62 64 67 58 61 58 52 50 44 39 36 33 24 28 29 27 28 30 26 28 26 23 15 15 17 13
22 22 29 23 27 25 16 21 7 28 23 22 19 16 7 34 57 59 58 55 56 58 61 64 62 64 64 57 55 52 48 45 41 41 39 31 28 26 31 34 32 33 36 31 29 24 19 19 19
18 24 23 16 21 15 18 13 3 23 16 24 22 19 14 17 41 51 54 54 53 54 58 60 62 63 61 52 51 50 49 46 48 44 48 41 32 35 29 34 36 38 39 37 37 27 27 27 23
15 23 20 23 18 21 22 16 23 18 21 20 24 21 12 1 20 32 46 50 50 50 51 55 56 55 51 49 47 45 45 45 48 44 47 47 42 39 37 37 37 38 40 40 41 39 29 36 31
18 24 21 18 24 20 17 9 19 17 19 19 23 22 14 16 8 10 28 43 49 49 49 50 49 47 46 42 45 44 42 43 45 48 44 44 46 49 44 44 37 40 41 45 45 41 37 37 36
Wind_Direction_500mb
143 154 194 242 250 216 78 68 123 111 90 92 80 41 87 38 35 89 138 149 146 138 149 145 150 152 151 146 145 142 139 136 134 125 120 106 89 89 89 85 75 74 68 95 98 90 101 111 111
180 214 248 259 250 57 85 99 89 97 108 124 96 75 52 67 66 117 134 140 125 130 149 146 148 153 155 157 154 150 144 142 140 131 125 104 88 86 81 79 80 85 89 100 104 104 103 114 110
186 233 259 237 31 51 62 119 109 105 130 124 100 88 69 67 122 85 148 139 147 140 144 163 148 149 155 157 158 162 159 155 148 139 136 112 97 90 78 75 81 95 100 106 108 115 114 111 108
203 228 249 34 64 61 71 85 122 136 110 102 120 88 90 141 131 114 139 139 139 137 145 155 154 154 154 158 159 159 160 167 162 155 151 126 106 97 74 83 89 104 111 111 113 119 117 116 113
246 253 261 83 74 60 67 94 117 152 146 146 155 137 116 147 131 131 154 149 145 151 151 156 154 160 160 163 163 163 169 174 170 171 162 138 118 98 83 89 101 111 118 118 121 119 122 120 115
245 207 95 71 77 91 85 92 108 139 125 140 128 120 142 163 147 149 153 159 156 152 152 158 153 157 160 165 166 166 172 179 180 179 161 172 130 115 99 100 102 111 124 126 124 118 117 117 110
264 298 80 94 98 86 102 116 78 124 141 168 150 140 139 161 154 145 142 149 161 154 156 158 158 156 160 166 167 176 185 189 191 193 186 181 178 143 123 122 123 121 124 135 133 126 123 118 111
301 221 65 90 78 93 111 93 103 112 107 124 158 158 162 163 156 151 138 166 159 158 162 161 164 164 168 179 183 186 195 197 198 204 194 196 178 185 134 134 134 132 129 132 138 139 137 134 129
235 225 52 48 59 115 155 116 87 100 124 137 203 143 154 157 156 161 157 159 168 158 171 168 170 177 167 174 197 185 187 191 187 185 192 164 181 216 138 178 172 158 149 141 141 134 120 113 109
177 51 46 6 75 123 165 128 130 140 131 127 103 122 147 157 166 169 162 166 176 177 180 183 180 179 168 201 203 166 193 186 181 198 239 183 192 176 208 182 211 177 170 160 148 131 107 99 130
6 19 22 66 41 126 158 124 153 142 140 136 136 144 155 161 172 177 175 177 177 181 179 179 184 172 166 190 180 158 187 191 191 194 198 199 168 143 177 199 199 186 170 149 157 150 150 160 132
267 46 356 29 96 140 158 139 167 190 131 147 150 157 161 171 176 179 178 179 180 180 183 182 186 192 186 194 172 192 197 187 193 201 190 197 168 180 210 158 189 212 196 160 187 189 121 164 163
11 36 315 103 161 170 169 162 158 146 139 153 155 162 168 171 177 181 186 186 185 186 187 187 189 192 187 190 192 190 195 192 191 201 196 193 196 200 181 211 191 194 190 186 187 188 179 178 172
332 307 37 72 166 170 192 174 177 172 160 160 164 170 173 177 181 185 189 192 192 192 192 192 194 197 192 203 200 177 192 195 193 203 217 204 211 213 219 224 211 188 202 176 195 193 193 190 180
289 271 148 120 134 203 231 189 183 165 173 172 176 181 183 185 187 191 194 194 195 196 195 195 195 200 199 197 200 194 207 202 197 207 213 217 212 217 212 230 213 170 170 189 210 220 211 209 220
244 229 122 117 153 154 252 159 164 181 179 179 187 186 191 194 193 196 196 198 197 197 197 195 197 201 199 198 201 198 212 215 212 219 237 262 245 228 220 216 202 182 182 186 195 196 202 209 198
322 5 42 136 167 148 234 121 163 179 181 187 189 193 196 198 203 199 199 200 198 196 196 197 197 198 208 208 193 201 213 219 223 227 235 260 260 240 229 216 206 184 176 187 194 204 194 149 186
285 347 341 22 106 198 223 260 160 183 181 198 191 198 198 202 203 202 202 200 199 199 199 197 198 194 199 202 197 210 218 220 224 228 232 248 266 246 231 214 195 174 186 189 182 174 213 215 203
312 296 302 320 49 302 252 264 183 173 200 195 198 199 199 204 201 203 202 200 199 199 199 200 197 196 195 197 200 206 219 219 225 219 230 242 240 251 237 228 171 167 189 184 186 201 193 198 166
287 285 275 259 18 295 295 273 263 151 192 203 202 193 201 199 199 201 201 201 201 200 199 198 197 198 196 200 204 214 218 228 213 223 224 232 233 223 233 185 163 188 192 205 199 196 192 196 184
265 264 288 355 314 270 287 237 121 122 163 185 201 202 199 198 199 198 200 202 201 200 200 200 199 202 202 196 208 216 229 248 228 213 234 228 223 227 241 203 166 221 178 214 211 206 213 207 202
272 288 288 303 281 293 171 80 50 267 140 170 184 207 200 198 200 196 200 201 202 203 203 202 203 203 207 203 208 215 221 234 245 233 227 242 225 221 229 210 192 217 186 205 214 198 208 215 187
297 327 292 281 275 270 220 211 147 219 106 144 178 193 216 196 199 195 200 202 203 201 202 201 201 205 204 216 205 220 222 233 254 220 242 240 226 225 219 220 199 206 190 208 198 213 196 223 232
291 276 253 242 254 265 268 248 207 130 96 38 90 210 205 207 198 200 197 200 201 201 200 200 202 207 209 213 220 210 220 226 230 227 212 233 226 226 219 223 211 197 200 213 218 208 213 197 206
231 248 250 217 216 235 245 171 285 81 55 25 354 296 228 205 192 197 193 197 199 200 201 202 203 210 213 214 224 224 227 224 220 221 231 230 210 224 220 225 222 197 212 209 221 202 205 224 220
309 327 309 321 297 322 11 226 100 70 59 11 0 312 282 192 190 194 195 197 197 199 200 203 204 215 211 218 224 230 230 223 225 227 223 222 224 219 219 214 225 195 226 224 220 201 209 231 221
331 274 349 311 296 282 284 298 232 84 48 29 20 353 303 184 189 191 195 197 197 200 201 202 204 219 220 219 224 228 232 224 218 216 230 219 226 222 208 210 209 210 208 215 219 199 225 215 226
254 329 293 262 251 258 279 250 263 74 54 35 21 19 11 191 197 189 198 199 200 202 203 204 205 218 223 213 218 220 224 228 216 217 214 216 221 219 225 215 212 206 206 213 210 215 216 220 221
310 287 252 254 301 307 286 68 54 73 53 39 30 38 61 12 200 205 204 206 205 205 205 206 209 209 211 211 214 214 215 217 221 213 220 217 214 222 209 224 213 213 213 215 221 208 225 237 224
281 288 299 276 278 254 267 69 70 40 65 44 53 52 85 91 31 353 232 213 208 211 210 209 211 212 215 214 212 218 214 213 216 215 216 219 217 221 225 220 219 219 222 222 223 226 222 232 232
Wind_Speed_850mb
13 8 8 11 8 9 19 15 19 24 19 22 16 16 21 31 20 12 40 34 41 38 36 41 43 43 44 42 40 38 34 34 30 28 22 21 21 22 19 16 17 19 16 19 25 32 37 38 35
13 10 11 16 9 14 19 18 16 20 29 35 25 12 18 20 21 34 27 50 37 40 36 34 41 44 44 40 38 35 33 30 26 24 17 18 19 19 17 14 13 17 17 21 26 30 38 36 32
10 14 11 11 17 23 20 34 25 30 24 19 11 21 10 10 22 11 35 50 35 37 35 35 41 42 42 37 37 35 30 26 21 20 14 13 14 14 15 15 15 17 19 22 24 25 30 33 29
8 11 18 7 24 24 23 22 32 22 17 14 26 18 16 14 24 27 44 37 39 33 36 37 41 41 40 36 34 33 28 24 17 14 10 8 12 12 13 15 16 17 18 19 23 24 24 26 26
14 17 9 23 24 23 22 18 29 26 17 27 18 20 19 41 37 39 29 35 37 32 32 37 39 39 37 34 31 28 26 22 18 12 7 7 10 10 12 14 16 16 17 19 20 20 23 21 21
14 11 5 24 23 16 16 14 18 27 25 30 17 23 16 45 49 43 36 34 34 41 30 34 37 35 33 32 29 25 22 19 16 13 9 7 8 9 9 12 14 16 17 21 20 19 19 20 19
30 10 22 25 23 19 13 4 18 14 25 24 33 25 29 48 51 49 39 35 32 34 36 30 29 32 31 26 22 19 18 16 15 13 11 10 9 7 8 12 13 14 16 17 18 18 17 17 17
21 7 16 17 27 18 14 15 12 14 14 24 34 15 47 57 56 56 44 33 32 35 32 31 29 27 24 23 22 19 16 16 14 15 14 12 6 3 10 10 10 13 11 14 16 14 15 15 15
34 7 25 29 27 16 13 18 13 13 26 11 13 29 58 61 54 56 49 39 30 28 34 35 32 24 28 21 20 19 17 15 16 14 15 11 8 6 8 9 10 12 11 12 15 15 14 12 13
14 25 24 25 16 21 15 19 22 18 24 19 38 52 67 60 49 51 57 41 39 38 36 39 33 25 24 21 13 13 10 13 13 11 16 14 12 13 13 11 13 13 12 11 14 17 25 19 13
26 22 11 16 19 17 17 24 19 23 19 34 53 65 69 60 54 48 43 41 40 35 36 29 27 31 22 21 14 16 14 16 18 19 17 13 11 9 17 15 12 12 14 9 9 16 11 7 10
6 11 13 9 7 10 14 23 18 14 24 37 52 71 67 62 62 55 47 45 42 38 36 30 31 23 23 25 22 17 20 8 18 17 18 18 13 10 11 10 15 17 17 26 18 13 8 12 14
20 16 4 9 7 8 14 16 14 10 28 38 51 62 66 62 63 54 45 41 40 40 37 35 31 32 28 29 27 22 19 20 17 15 19 19 19 15 12 14 22 20 21 18 15 17 13 13 11
17 6 6 8 8 12 22 22 17 21 30 40 52 57 60 61 60 53 47 44 43 41 40 37 35 35 31 33 31 29 20 19 19 17 19 23 20 17 18 21 18 24 19 23 17 16 18 20 16
13 13 22 12 8 11 22 14 23 32 31 39 49 52 53 54 54 53 49 46 44 41 41 40 39 36 36 30 22 19 19 19 19 17 15 22 22 16 18 11 19 16 20 17 23 24 19 15 12
23 15 15 16 15 5 21 29 13 31 41 44 46 51 53 52 53 49 48 46 45 42 43 41 37 38 37 33 26 21 19 18 17 19 18 20 20 15 12 14 17 23 20 22 18 12 12 19 13
48 8 12 24 17 11 16 14 21 27 44 46 47 48 52 52 53 52 49 48 47 45 44 44 42 38 37 39 25 24 21 22 17 20 21 21 19 15 9 11 19 24 22 22 20 13 12 10 11
23 17 16 16 10 13 15 17 25 29 42 40 46 48 51 53 55 55 52 49 48 46 45 44 43 40 40 32 32 27 27 24 25 20 17 19 22 11 9 7 16 26 24 19 17 15 10 7 18
21 25 23 17 9 11 13 12 17 34 32 40 49 51 54 54 52 54 55 52 50 49 45 46 46 46 45 40 35 31 32 28 27 22 21 22 13 8 6 9 12 25 21 18 19 17 10 17 13
29 32 29 27 12 20 12 14 17 33 27 32 37 46 48 49 51 54 58 58 55 53 50 47 47 48 46 41 34 35 30 33 31 25 20 22 18 10 7 8 12 19 19 23 18 20 18 9 17
31 31 36 20 21 36 15 24 15 17 24 24 31 37 46 49 50 54 60 61 58 56 55 52 51 49 48 42 34 30 28 34 16 16 18 25 21 16 13 13 18 19 24 15 18 18 17 11 15
30 27 27 16 25 13 3 5 18 24 22 17 26 35 43 50 49 52 59 62 63 59 55 54 53 53 48 49 37 38 30 29 27 23 20 25 25 24 20 17 19 20 20 18 15 18 17 14 13
27 26 23 28 26 32 21 10 27 29 13 18 25 32 41 51 53 54 56 60 60 58 58 57 56 56 51 50 49 40 39 31 26 23 21 26 27 28 25 25 24 20 20 22 20 22 19 14 9
21 19 24 28 26 25 29 20 14 26 6 8 5 11 35 50 55 51 51 54 57 59 60 60 58 60 57 53 51 53 42 36 35 27 27 21 24 27 32 30 27 24 21 20 28 21 13 20 15
21 29 20 21 22 23 28 13 13 26 15 18 13 11 20 45 59 57 55 58 58 61 62 61 63 64 61 58 53 52 55 43 37 26 28 27 24 27 29 32 30 24 30 32 24 20 18 18 18
28 26 21 21 19 21 17 10 13 9 26 20 16 14 20 43 61 61 58 57 58 60 61 62 64 67 58 61 58 52 50 44 39 36 33 24 28 29 27 28 30 26 28 26 23 15 15 17 13
22 22 29 23 27 25 16 21 7 28 23 22 19 16 7 34 57 59 58 55 56 58 61 64 62 64 64 57 55 52 48 45 41 41 39 31 28 26 31 34 32 33 36 31 29 24 19 19 19
18 24 23 16 21 15 18 13 3 23 16 24 22 19 14 17 41 51 54 54 53 54 58 60 62 63 61 52 51 50 49 46 48 44 48 41 32 35 29 34 36 38 39 37 37 27 27 27 23
15 23 20 23 18 21 22 16 23 18 21 20 24 21 12 1 20 32 46 50 50 50 51 55 56 55 51 49 47 45 45 45 48 44 47 47 42 39 37 37 37 38 40 40 41 39 29 36 31
18 24 21 18 24 20 17 9 19 17 19 19 23 22 14 16 8 10 28 43 49 49 49 50 49 47 46 42 45 44 42 43 45 48 44 44 46 49 44 44 37 40 41 45 45 41 37 37 36
Wind_Direction_850mb
143 154 194 242 250 216 78 68 123 111 90 92 80 41 87 38 35 89 138 149 146 138 149 145 150 152 151 146 145 142 139 136 134 125 120 106 89 89 89 85 75 74 68 95 98 90 101 111 111
180 214 248 259 250 57 85 99 89 97 108 124 96 75 52 67 66 117 134 140 125 130 149 146 148 153 155 157 154 150 144 142 140 131 125 104 88 86 81 79 80 85 89 100 104 104 103 114 110
186 233 259 237 31 51 62 119 109 105 130 124 100 88 69 67 122 85 148 139 147 140 144 163 148 149 155 157 158 162 159 155 148 139 136 112 97 90 78 75 81 95 100 106 108 115 114 111 108
203 228 249 34 64 61 71 85 122 136 110 102 120 88 90 141 131 114 139 139 139 137 145 155 154 154 154 158 159 159 160 167 162 155 151 126 106 97 74 83 89 104 111 111 113 119 117 116 113
246 253 261 83 74 60 67 94 117 152 146 146 155 137 116 147 131 131 154 149 145 151 151 156 154 160 160 163 163 163 169 174 170 171 162 138 118 98 83 89 101 111 118 118 121 119 122 120 115
245 207 95 71 77 91 85 92 108 139 125 140 128 120 142 163 147 149 153 159 156 152 152 158 153 157 160 165 166 166 172 179 180 179 161 172 130 115 99 100 102 111 124 126 124 118 117 117 110
264 298 80 94 98 86 102 116 78 124 141 168 150 140 139 161 154 145 142 149 161 154 156 158 158 156 160 166 167 176 185 189 191 193 186 181 178 143 123 122 123 121 124 135 133 126 123 118 111
301 221 65 90 78 93 111 93 103 112 107 124 158 158 162 163 156 151 138 166 159 158 162 161 164 164 168 179 183 186 195 197 198 204 194 196 178 185 134 134 134 132 129 132 138 139 137 134 129
235 225 52 48 59 115 155 116 87 100 124 137 203 143 154 157 156 161 157 159 168 158 171 168 170 177 167 174 197 185 187 191 187 185 192 164 181 216 138 178 172 158 149 141 141 134 120 113 109
177 51 46 6 75 123 165 128 130 140 131 127 103 122 147 157 166 169 162 166 176 177 180 183 180 179 168 201 203 166 193 186 181 198 239 183 192 176 208 182 211 177 170 160 148 131 107 99 130
6 19 22 66 41 126 158 124 153 142 140 136 136 144 155 161 172 177 175 177 177 181 179 179 184 172 166 190 180 158 187 191 191 194 198 199 168 143 177 199 199 186 170 149 157 150 150 160 132
267 46 356 29 96 140 158 139 167 190 131 147 150 157 161 171 176 179 178 179 180 180 183 182 186 192 186 194 172 192 197 187 193 201 190 197 168 180 210 158 189 212 196 160 187 189 121 164 163
11 36 315 103 161 170 169 162 158 146 139 153 155 162 168 171 177 181 186 186 185 186 187 187 189 192 187 190 192 190 195 192 191 201 196 193 196 200 181 211 191 194 190 186 187 188 179 178 172
332 307 37 72 166 170 192 174 177 172 160 160 164 170 173 177 181 185 189 192 192 192 192 192 194 197 192 203 200 177 192 195 193 203 217 204 211 213 219 224 211 188 202 176 195 193 193 190 180
289 271 148 120 134 203 231 189 183 165 173 172 176 181 183 185 187 191 194 194 195 196 195 195 195 200 199 197 200 194 207 202 197 207 213 217 212 217 212 230 213 170 170 189 210 220 211 209 220
244 229 122 117 153 154 252 159 164 181 179 179 187 186 191 194 193 196 196 198 197 197 197 195 197 201 199 198 201 198 212 215 212 219 237 262 245 228 220 216 202 182 182 186 195 196 202 209 198
322 5 42 136 167 148 234 121 163 179 181 187 189 193 196 198 203 199 199 200 198 196 196 197 197 198 208 208 193 201 213 219 223 227 235 260 260 240 229 216 206 184 176 187 194 204 194 149 186
285 347 341 22 106 198 223 260 160 183 181 198 191 198 198 202 203 202 202 200 199 199 199 197 198 194 199 202 197 210 218 220 224 228 232 248 266 246 231 214 195 174 186 189 182 174 213 215 203
312 296 302 320 49 302 252 264 183 173 200 195 198 199 199 204 201 203 202 200 199 199 199 200 197 196 195 197 200 206 219 219 225 219 230 242 240 251 237 228 171 167 189 184 186 201 193 198 166
287 285 275 259 18 295 295 273 263 151 192 203 202 193 201 199 199 201 201 201 201 200 199 198 197 198 196 200 204 214 218 228 213 223 224 232 233 223 233 185 163 188 192 205 199 196 192 196 184
265 264 288 355 314 270 287 237 121 122 163 185 201 202 199 198 199 198 200 202 201 200 200 200 199 202 202 196 208 216 229 248 228 213 234 228 223 227 241 203 166 221 178 214 211 206 213 207 202
272 288 288 303 281 293 171 80 50 267 140 170 184 207 200 198 200 196 200 201 202 203 203 202 203 203 207 203 208 215 221 234 245 233 227 242 225 221 229 210 192 217 186 205 214 198 208 215 187
297 327 292 281 275 270 220 211 147 219 106 144 178 193 216 196 199 195 200 202 203 201 202 201 201 205 204 216 205 220 222 233 254 220 242 240 226 225 219 220 199 206 190 208 198 213 196 223 232
291 276 253 242 254 265 268 248 207 130 96 38 90 210 205 207 198 200 197 200 201 201 200 200 202 207 209 213 220 210 220 226 230 227 212 233 226 226 219 223 211 197 200 213 218 208 213 197 206
231 248 250 217 216 235 245 171 285 81 55 25 354 296 228 205 192 197 193 197 199 200 201 202 203 210 213 214 224 224 227 224 220 221 231 230 210 224 220 225 222 197 212 209 221 202 205 224 220
309 327 309 321 297 322 11 226 100 70 59 11 0 312 282 192 190 194 195 197 197 199 200 203 204 215 211 218 224 230 230 223 225 227 223 222 224 219 219 214 225 195 226 224 220 201 209 231 221
331 274 349 311 296 282 284 298 232 84 48 29 20 353 303 184 189 191 195 197 197 200 201 202 204 219 220 219 224 228 232 224 218 216 230 219 226 222 208 210 209 210 208 215 219 199 225 215 226
254 329 293 262 251 258 279 250 263 74 54 35 21 19 11 191 197 189 198 199 200 202 203 204 205 218 223 213 218 220 224 228 216 217 214 216 221 219 225 215 212 206 206 213 210 215 216 220 221
310 287 252 254 301 307 286 68 54 73 53 39 30 38 61 12 200 205 204 206 205 205 205 206 209 209 211 211 214 214 215 217 221 213 220 217 214 222 209 224 213 213 213 215 221 208 225 237 224
281 288 299 276 278 254 267 69 70 40 65 44 53 52 85 91 31 353 232 213 208 211 210 209 211 212 215 214 212 218 214 213 216 215 216 219 217 221 225 220 219 219 222 222 223 226 222 232 232